Precipitable_Water
0.36 0.30 0.25 0.30 0.32 0.30 0.30 0.35 0.37 0.45 0.48 0.44 0.47 0.59 0.66 0.74 0.66 0.58 0.54 0.46 0.45 0.56 0.75 0.84 0.84 0.83 0.81 0.89 0.87 0.82 0.90 0.98 1.04 1.03 1.00 0.95 0.90 0.97 0.90 1.12 1.31 1.22 1.21 1.26
0.34 0.32 0.39 0.38 0.36 0.30 0.28 0.27 0.31 0.34 0.42 0.36 0.33 0.36 0.58 0.67 0.64 0.57 0.55 0.53 0.54 0.62 0.71 0.71 0.78 0.86 0.88 0.82 0.82 0.92 0.88 0.93 0.97 0.94 0.87 0.88 0.83 0.82 0.88 0.99 1.14 1.22 1.27 1.25
0.31 0.38 0.49 0.40 0.31 0.27 0.24 0.24 0.28 0.33 0.43 0.42 0.33 0.32 0.38 0.61 0.69 0.66 0.63 0.67 0.64 0.61 0.64 0.69 0.69 0.78 0.86 0.82 0.83 0.88 0.95 1.01 1.02 0.96 0.91 0.91 0.89 0.87 0.92 1.00 1.09 1.26 1.29 1.33
0.38 0.44 0.45 0.38 0.31 0.26 0.21 0.28 0.33 0.37 0.35 0.26 0.41 0.28 0.35 0.52 0.55 0.61 0.57 0.59 0.59 0.63 0.66 0.69 0.71 0.73 0.78 0.85 0.88 0.90 0.91 0.94 1.02 1.04 1.09 0.97 0.85 0.86 0.99 1.12 1.21 1.25 1.27 1.28
0.37 0.43 0.39 0.36 0.26 0.27 0.28 0.39 0.37 0.35 0.28 0.32 0.34 0.30 0.29 0.40 0.42 0.57 0.58 0.58 0.62 0.63 0.66 0.69 0.70 0.71 0.78 0.83 0.85 0.88 0.91 0.96 1.03 1.11 1.11 1.12 0.98 1.06 1.13 1.14 1.11 1.21 1.27 1.26
0.41 0.50 0.46 0.41 0.33 0.34 0.38 0.39 0.42 0.35 0.27 0.25 0.32 0.30 0.36 0.38 0.42 0.46 0.54 0.64 0.68 0.66 0.69 0.73 0.77 0.79 0.77 0.81 0.82 0.88 0.90 0.94 1.06 1.07 1.15 1.14 1.12 1.11 1.12 1.23 1.21 1.22 1.21 1.22
0.39 0.41 0.47 0.42 0.33 0.35 0.35 0.33 0.25 0.24 0.26 0.24 0.35 0.30 0.32 0.39 0.43 0.46 0.44 0.49 0.63 0.69 0.69 0.71 0.75 0.80 0.81 0.81 0.83 0.89 0.91 0.93 1.03 1.12 1.20 1.19 1.15 1.22 1.15 1.11 1.20 1.26 1.22 1.18
0.32 0.32 0.40 0.42 0.36 0.35 0.34 0.31 0.26 0.23 0.29 0.34 0.42 0.30 0.29 0.38 0.43 0.44 0.41 0.39 0.51 0.65 0.70 0.70 0.71 0.79 0.86 0.90 0.91 0.92 0.93 0.92 1.01 1.08 1.14 1.19 1.06 1.12 1.15 1.09 1.10 1.16 1.15 1.17
0.35 0.36 0.42 0.43 0.39 0.40 0.36 0.30 0.34 0.38 0.48 0.39 0.43 0.35 0.32 0.36 0.36 0.35 0.36 0.41 0.44 0.46 0.67 0.69 0.76 0.71 0.81 0.90 0.95 0.98 1.01 1.00 1.03 1.06 1.11 1.16 1.06 1.12 1.14 1.05 1.07 1.07 1.08 1.12
0.39 0.36 0.42 0.45 0.44 0.38 0.34 0.44 0.34 0.35 0.29 0.29 0.28 0.26 0.28 0.37 0.37 0.39 0.36 0.38 0.48 0.51 0.49 0.61 0.81 0.85 0.82 0.88 0.98 1.05 1.06 1.05 1.11 1.15 1.21 1.21 1.11 1.14 1.17 1.06 1.01 1.01 1.10 1.14
0.41 0.40 0.40 0.44 0.38 0.34 0.32 0.30 0.37 0.39 0.34 0.26 0.22 0.27 0.45 0.49 0.43 0.39 0.37 0.38 0.42 0.47 0.55 0.57 0.62 0.72 0.81 0.91 1.09 1.16 1.15 1.16 1.20 1.24 1.26 1.26 1.22 1.17 1.14 1.09 1.07 1.05 1.09 1.11
0.39 0.38 0.35 0.42 0.44 0.43 0.36 0.32 0.32 0.34 0.29 0.35 0.33 0.28 0.44 0.47 0.44 0.43 0.42 0.40 0.45 0.46 0.49 0.57 0.56 0.60 0.68 0.81 0.95 1.06 1.15 1.20 1.21 1.25 1.24 1.30 1.27 1.17 1.05 1.10 1.08 1.13 1.07 1.11
0.41 0.35 0.33 0.33 0.43 0.44 0.36 0.35 0.41 0.35 0.37 0.31 0.31 0.33 0.43 0.41 0.38 0.40 0.34 0.37 0.41 0.42 0.44 0.52 0.61 0.62 0.63 0.65 0.73 0.99 1.09 1.15 1.20 1.21 1.27 1.27 1.19 1.12 1.11 1.12 1.15 1.09 1.10 1.06
0.46 0.37 0.33 0.30 0.32 0.43 0.36 0.35 0.41 0.42 0.33 0.32 0.35 0.37 0.40 0.42 0.42 0.43 0.47 0.42 0.42 0.45 0.45 0.45 0.61 0.65 0.66 0.68 0.72 0.82 0.92 0.99 1.12 1.17 1.18 1.19 1.10 1.12 1.07 1.11 1.11 1.08 1.06 1.02
0.44 0.37 0.38 0.37 0.38 0.37 0.41 0.38 0.32 0.38 0.44 0.33 0.34 0.33 0.31 0.36 0.42 0.50 0.59 0.51 0.49 0.48 0.46 0.46 0.52 0.75 0.77 0.77 0.75 0.83 0.89 0.93 1.04 1.07 1.13 1.07 1.05 1.14 1.13 1.08 1.05 1.03 1.01 1.00
0.45 0.38 0.41 0.35 0.40 0.37 0.35 0.37 0.39 0.33 0.29 0.27 0.31 0.32 0.40 0.40 0.44 0.48 0.51 0.45 0.45 0.43 0.44 0.44 0.45 0.73 0.77 0.82 0.85 0.87 0.86 0.91 0.94 0.94 0.94 0.99 1.05 1.03 1.03 1.00 0.96 0.96 0.92 0.84
0.42 0.38 0.38 0.32 0.38 0.37 0.29 0.33 0.34 0.36 0.38 0.32 0.29 0.33 0.36 0.34 0.39 0.45 0.44 0.41 0.41 0.43 0.44 0.49 0.49 0.72 0.78 0.83 0.87 0.83 0.82 0.85 0.87 0.87 0.90 0.95 0.97 0.90 0.85 0.80 0.75 0.69 0.66 0.66
0.43 0.40 0.40 0.37 0.37 0.24 0.31 0.40 0.36 0.33 0.34 0.33 0.32 0.33 0.35 0.36 0.38 0.43 0.49 0.46 0.47 0.48 0.50 0.55 0.68 0.74 0.77 0.82 0.83 0.86 0.86 0.84 0.85 0.85 0.83 0.79 0.75 0.69 0.64 0.60 0.58 0.57 0.59 0.59
0.60 0.50 0.41 0.34 0.30 0.32 0.31 0.37 0.37 0.33 0.30 0.34 0.35 0.34 0.38 0.38 0.40 0.44 0.49 0.50 0.48 0.51 0.56 0.63 0.71 0.74 0.73 0.70 0.74 0.76 0.76 0.73 0.71 0.69 0.67 0.65 0.62 0.57 0.54 0.51 0.53 0.56 0.58 0.58
0.58 0.52 0.47 0.41 0.30 0.25 0.35 0.38 0.40 0.41 0.29 0.40 0.40 0.37 0.37 0.41 0.39 0.43 0.52 0.51 0.45 0.50 0.58 0.60 0.64 0.65 0.65 0.66 0.68 0.65 0.64 0.62 0.59 0.58 0.59 0.58 0.55 0.52 0.53 0.55 0.57 0.59 0.59 0.59
0.43 0.43 0.40 0.40 0.36 0.37 0.42 0.41 0.41 0.31 0.32 0.44 0.46 0.45 0.39 0.42 0.45 0.49 0.47 0.45 0.47 0.53 0.56 0.58 0.56 0.57 0.59 0.60 0.58 0.53 0.52 0.52 0.57 0.57 0.54 0.53 0.54 0.55 0.56 0.56 0.57 0.56 0.55 0.53
0.38 0.40 0.40 0.42 0.36 0.31 0.50 0.47 0.37 0.44 0.43 0.49 0.43 0.47 0.51 0.48 0.49 0.46 0.45 0.46 0.45 0.47 0.51 0.54 0.53 0.53 0.56 0.58 0.56 0.52 0.52 0.56 0.55 0.53 0.52 0.53 0.56 0.56 0.56 0.54 0.51 0.49 0.47 0.45
0.32 0.41 0.41 0.49 0.43 0.56 0.63 0.50 0.56 0.54 0.48 0.49 0.50 0.60 0.57 0.51 0.49 0.48 0.47 0.46 0.43 0.47 0.50 0.55 0.55 0.55 0.57 0.58 0.57 0.53 0.54 0.55 0.53 0.52 0.52 0.52 0.50 0.49 0.47 0.45 0.43 0.43 0.46 0.42
0.30 0.44 0.46 0.44 0.49 0.56 0.73 0.69 0.62 0.62 0.62 0.60 0.60 0.61 0.56 0.53 0.56 0.53 0.52 0.48 0.44 0.48 0.50 0.55 0.56 0.55 0.54 0.56 0.56 0.56 0.55 0.54 0.51 0.48 0.46 0.46 0.45 0.44 0.43 0.42 0.41 0.42 0.38 0.35
0.25 0.41 0.41 0.49 0.48 0.48 0.55 0.60 0.63 0.66 0.71 0.68 0.64 0.64 0.60 0.59 0.57 0.56 0.53 0.47 0.45 0.48 0.52 0.55 0.56 0.55 0.56 0.57 0.56 0.56 0.55 0.51 0.48 0.48 0.47 0.47 0.44 0.41 0.40 0.40 0.38 0.36 0.35 0.34
0.35 0.30 0.34 0.35 0.40 0.46 0.50 0.60 0.65 0.63 0.60 0.63 0.67 0.67 0.63 0.62 0.62 0.60 0.52 0.47 0.49 0.51 0.54 0.55 0.57 0.56 0.54 0.55 0.54 0.53 0.52 0.52 0.50 0.49 0.49 0.46 0.43 0.41 0.40 0.37 0.34 0.35 0.34 0.32
Wind_Speed
16 14 15 15 15 16 15 11 16 5 6 8 13 10 10 9 3 3 2 3 6 8 8 10 11 11 12 13 14 16 17 17 17 16 17 16 16 16 17 15 15 16 15 15
17 18 16 16 17 16 15 15 16 9 9 9 10 10 10 9 8 5 4 5 7 7 9 9 10 10 11 12 13 14 14 14 14 13 13 13 14 14 15 16 16 16 16 16
20 17 16 17 16 14 15 16 14 11 11 10 11 12 7 10 9 7 6 6 8 9 10 11 11 11 12 13 14 14 13 12 12 12 11 12 12 13 15 15 17 17 17 17
22 20 19 15 15 14 14 13 13 12 14 12 8 13 10 13 11 9 8 8 8 10 11 12 13 13 13 14 14 14 14 13 12 13 12 13 12 13 14 15 16 17 18 19
22 22 19 17 16 15 13 8 13 13 16 15 14 10 8 11 13 14 9 10 10 10 12 14 15 15 16 16 16 15 15 14 14 14 14 14 13 14 15 18 19 19 19 20
24 21 20 19 17 16 12 10 13 13 13 14 15 13 10 6 9 13 13 13 12 12 13 14 16 16 17 18 18 18 17 16 16 16 15 15 16 16 18 20 22 22 22 21
24 25 22 18 18 17 14 12 10 11 12 12 14 14 11 9 10 10 11 12 15 14 14 15 17 18 18 19 20 19 20 19 19 19 18 16 17 17 17 19 27 25 25 23
23 22 25 20 21 17 16 17 11 8 8 10 11 8 10 12 8 6 8 10 12 17 16 16 18 21 21 20 20 21 21 20 20 20 20 20 16 20 17 16 15 20 22 23
23 27 21 24 21 21 17 17 16 6 9 11 10 8 10 10 9 9 9 8 12 14 20 20 21 22 22 23 22 22 22 22 23 23 22 21 21 18 19 18 17 18 20 22
26 19 24 24 23 23 22 16 16 13 9 10 12 13 8 8 9 8 9 8 7 10 14 19 21 20 22 23 24 24 24 25 24 25 24 24 22 21 20 19 19 20 21 22
29 23 18 22 26 22 19 20 16 18 17 14 11 10 8 9 7 9 8 9 8 7 9 12 14 14 20 26 26 26 24 24 24 25 25 26 25 23 22 22 21 22 22 23
34 23 23 24 22 23 25 22 23 18 16 13 11 14 12 11 14 12 10 12 9 8 8 10 11 14 16 18 18 25 26 25 24 24 25 26 26 24 24 23 22 22 22 23
32 31 22 25 25 25 23 24 22 23 19 20 14 14 10 12 13 13 13 13 12 11 12 11 12 13 14 15 18 19 21 23 23 24 24 23 22 24 24 23 23 23 23 24
28 31 33 27 24 20 22 24 23 23 20 17 21 19 20 18 12 14 17 17 15 12 12 13 13 14 15 16 18 19 20 22 22 22 22 21 19 19 20 20 21 22 23 25
28 32 34 33 28 27 25 25 24 26 26 22 21 23 21 22 19 17 17 9 12 14 14 14 14 15 15 15 16 16 16 16 15 18 17 18 18 19 20 21 22 24 25 26
28 30 30 33 30 31 30 27 28 25 25 27 25 25 21 20 16 19 25 16 16 19 19 18 18 17 16 16 17 17 17 17 17 16 17 18 19 20 21 22 23 23 23 24
30 28 31 30 31 27 33 30 27 24 25 21 23 20 20 22 19 19 22 22 22 19 16 17 19 18 18 18 17 18 19 19 19 18 18 19 19 19 19 20 21 22 23 24
24 30 28 25 21 33 27 28 28 27 25 24 24 23 21 20 21 19 17 15 15 17 18 19 18 19 19 19 19 19 19 18 18 19 19 19 19 19 20 21 22 22 23 24
20 21 22 24 31 30 30 28 24 24 26 25 27 25 22 21 21 18 17 18 18 19 19 18 18 19 19 19 19 18 18 17 17 17 17 18 19 19 20 20 21 22 23 24
24 25 22 21 26 30 24 25 23 22 26 21 22 22 21 21 17 17 16 16 17 17 17 17 18 18 19 19 19 18 17 17 17 17 17 18 18 19 19 20 21 22 23 24
22 23 27 26 23 21 22 24 24 26 18 14 12 20 21 17 17 16 16 17 17 17 16 16 16 17 17 17 17 17 17 17 17 17 17 18 18 19 20 22 23 24 25 26
20 20 24 24 23 26 17 18 25 21 25 23 18 18 16 17 17 17 17 17 18 18 17 17 16 16 16 17 17 17 17 17 17 17 18 18 20 21 23 23 24 25 25 26
24 22 19 22 23 21 21 24 20 19 19 21 20 19 20 19 19 19 19 19 19 19 18 18 17 17 18 18 18 18 18 18 18 19 20 21 22 23 24 25 25 26 26 27
25 23 22 18 21 25 20 17 23 24 23 21 22 20 21 21 21 20 20 20 20 20 20 20 20 20 20 20 20 19 20 21 21 21 22 22 23 25 26 26 27 27 28 29
25 25 24 24 24 24 25 19 20 19 20 21 22 22 21 22 22 22 22 21 21 21 21 21 21 21 21 21 21 22 22 23 23 23 24 25 26 26 27 28 29 29 30 30
26 26 25 24 23 20 21 21 21 22 25 24 23 23 23 23 22 23 23 22 22 23 22 22 23 23 23 23 23 24 24 25 25 26 26 27 28 29 29 30 30 30 31 32
Wind_Direction
239 249 250 255 258 264 279 276 264 258 270 249 271 232 244 223 207 221 172 132 149 153 145 150 145 146 148 142 142 144 149 149 156 161 162 166 177 184 196 204 211 213 220 223
241 243 252 259 267 270 270 264 269 260 247 260 281 280 225 218 221 215 209 185 175 180 171 166 165 163 159 157 155 154 155 159 164 170 179 187 194 203 214 219 222 225 225 226
237 249 250 245 260 266 260 252 254 289 263 270 274 274 249 228 220 223 219 212 200 188 183 186 184 183 178 178 179 177 177 179 181 184 190 200 209 216 219 224 227 228 230 231
241 245 254 254 256 254 251 245 265 248 267 261 274 276 242 211 226 223 225 220 219 209 200 199 199 197 197 195 196 198 200 200 202 205 210 210 218 222 227 230 231 237 235 239
239 242 244 245 247 237 247 257 265 273 257 266 262 256 273 235 230 217 224 222 218 217 214 208 207 207 208 207 206 207 210 215 216 220 224 227 231 237 242 245 243 240 241 245
241 243 241 240 241 240 243 236 246 262 251 257 260 247 251 238 262 243 222 221 221 222 219 218 213 213 215 215 216 217 221 224 224 227 231 236 239 250 256 254 249 246 248 251
235 241 236 232 232 233 234 246 252 243 240 249 251 248 248 226 209 238 216 230 226 229 229 226 222 219 218 219 220 223 225 229 231 231 235 240 247 257 266 267 250 249 255 255
230 233 231 229 234 227 230 233 241 231 257 268 275 242 240 218 223 223 247 257 243 231 230 232 230 225 224 223 224 227 230 234 236 238 237 241 263 261 261 272 263 246 250 257
229 236 232 229 226 231 228 228 239 224 257 254 240 243 239 221 239 249 249 258 262 253 238 236 231 224 225 227 229 232 234 239 240 242 242 247 258 262 258 266 264 260 257 265
231 238 239 224 222 227 234 235 236 228 236 238 249 251 262 234 239 239 254 249 264 262 248 246 245 233 225 231 233 235 238 242 243 245 246 249 258 261 258 266 264 265 267 269
228 232 236 232 217 220 226 234 233 244 242 249 255 254 241 237 275 247 246 254 263 254 256 253 249 251 245 241 239 237 239 244 248 244 248 250 254 257 260 265 266 266 267 270
221 227 236 231 227 228 238 232 231 240 233 248 248 248 208 241 247 252 259 259 254 258 266 252 247 248 247 244 243 238 241 244 250 245 249 250 252 255 259 265 266 268 269 273
215 224 228 236 229 226 233 235 235 237 240 239 234 243 248 263 258 253 254 251 243 250 258 254 251 248 247 246 242 239 241 249 248 248 247 250 255 254 258 264 266 269 272 275
219 222 224 232 233 230 232 232 228 239 241 246 254 253 248 263 258 273 264 244 240 249 259 256 252 250 250 248 246 245 248 253 253 248 248 249 256 253 258 265 269 272 275 279
218 224 224 233 236 235 231 233 237 231 234 240 242 253 257 257 249 253 252 251 246 253 262 260 258 251 249 251 247 244 244 247 251 247 245 252 258 256 262 268 273 276 279 282
223 226 227 234 239 235 246 238 236 236 242 247 252 254 253 258 252 259 257 251 251 261 263 261 260 250 250 249 247 244 244 246 251 251 255 257 259 265 270 274 276 280 281 283
223 223 224 233 231 236 243 238 238 239 241 249 252 258 257 256 254 249 252 251 261 257 258 265 258 248 249 249 248 249 246 247 250 253 257 259 263 267 272 275 279 282 285 286
220 220 223 227 226 232 240 237 240 245 252 255 259 257 257 253 256 261 258 258 251 256 260 265 256 250 248 248 248 247 245 246 250 254 257 260 263 268 273 278 282 284 286 288
221 222 225 227 231 242 240 235 238 240 250 247 251 253 256 254 254 249 251 256 260 263 263 258 255 250 246 246 245 242 243 246 249 253 256 261 265 270 275 279 282 284 286 289
226 226 223 226 228 235 236 236 233 242 250 252 252 253 252 250 245 247 247 258 263 260 255 253 251 247 244 242 239 239 241 245 251 254 259 263 267 271 275 280 283 286 289 291
218 225 230 232 234 242 235 231 234 240 237 240 265 248 247 251 252 247 250 263 259 253 250 251 247 242 237 233 232 236 242 247 251 255 260 264 269 273 277 282 285 288 290 291
214 219 224 229 234 239 241 238 228 242 235 247 266 253 253 253 250 252 253 257 254 251 247 244 239 234 231 230 233 237 243 247 251 256 262 267 272 277 281 283 286 288 291 292
219 220 225 231 233 248 250 237 239 239 246 253 265 253 256 251 250 251 254 256 252 247 243 238 234 232 233 234 237 242 245 250 254 260 265 269 274 279 283 286 288 290 292 293
226 226 230 239 236 242 244 248 238 244 253 258 257 260 256 255 250 253 254 254 249 244 240 237 235 236 238 240 243 246 250 253 257 262 267 272 278 282 285 287 289 290 292 293
229 221 226 234 236 242 254 254 243 248 252 257 257 262 264 260 251 252 253 251 247 242 239 238 239 239 241 244 248 252 254 257 261 265 271 276 279 282 285 288 289 289 291 291
228 231 233 236 245 249 251 256 254 254 257 264 261 262 264 262 253 252 253 249 245 241 239 241 242 243 246 249 253 256 258 261 265 269 274 276 280 283 284 285 288 290 291 293